Location: Dal�� Lhota
(48.7500°N, 14.0167°E)
Time: 00:50:52
(UTC+00:00)

Vanguard 3 - Pass Details

Date: 31 July 2021
Orbit: 510 x 3260 km, 33.3° (Epoch: 16 September)

Event Time Altitude Azimuth Distance (km) Brightness Sun altitude
Rises 19:16:40 0° 254° (WSW) 6,300 12.3 -5.5°
Reaches altitude 10° 19:20:37 10° 249° (WSW) 5,565 11.9 -6.0°
Maximum altitude 19:37:30 49° 182° (S) 3,867 10.3 -8.2°
Drops below altitude 10° 19:55:13 10° 116° (ESE) 5,808 10.9 -10.4°
Enters shadow 19:55:49 - 115° (ESE) 5,914 10.9 -10.4°
Sets 19:59:28 0° 111° (ESE) 6,582 - -10.9°
